TimeMDT,TemperatureF,Dew PointF,Humidity,Sea Level PressureIn,VisibilityMPH,Wind Direction,Wind SpeedMPH,Gust SpeedMPH,PrecipitationIn,Events,Conditions,WindDirDegrees,DateUTC
12:53 AM,39.0,33.1,79,30.01,10.0,Calm,Calm,-,N/A,,Clear,0,2012-10-30 06:53:00
1:53 AM,43.0,36.0,76,30.01,10.0,Calm,Calm,-,N/A,,Overcast,0,2012-10-30 07:53:00
2:53 AM,44.1,35.1,71,30.02,10.0,Variable,4.6,-,N/A,,Scattered Clouds,0,2012-10-30 08:53:00
3:53 AM,39.9,33.1,77,30.03,10.0,North,3.5,-,N/A,,Clear,10,2012-10-30 09:53:00
4:53 AM,35.1,30.9,85,30.05,10.0,Calm,Calm,-,N/A,,Clear,0,2012-10-30 10:53:00
5:53 AM,36.0,30.9,82,30.10,10.0,Calm,Calm,-,N/A,,Clear,0,2012-10-30 11:53:00
6:53 AM,35.1,30.9,85,30.12,10.0,Calm,Calm,-,N/A,,Clear,0,2012-10-30 12:53:00
7:53 AM,36.0,30.9,82,30.13,10.0,Calm,Calm,-,N/A,,Clear,0,2012-10-30 13:53:00
8:53 AM,39.0,35.1,86,30.14,10.0,Calm,Calm,-,N/A,,Clear,0,2012-10-30 14:53:00
9:53 AM,46.9,37.0,68,30.11,10.0,Calm,Calm,-,N/A,,Clear,0,2012-10-30 15:53:00
10:53 AM,51.1,42.1,71,30.10,10.0,Calm,Calm,-,N/A,,Clear,0,2012-10-30 16:53:00
11:53 AM,59.0,39.2,48,30.09,10.0,Calm,Calm,-,N/A,,Clear,0,2012-10-30 17:53:00
12:53 PM,61.0,33.1,35,30.07,10.0,Variable,4.6,-,N/A,,Clear,0,2012-10-30 18:53:00
1:53 PM,62.1,30.9,31,30.03,10.0,ESE,4.6,-,N/A,,Clear,120,2012-10-30 19:53:00
2:53 PM,64.0,32.0,30,30.00,10.0,ESE,5.8,-,N/A,,Clear,110,2012-10-30 20:53:00
3:53 PM,64.0,30.9,29,30.01,10.0,SE,3.5,-,N/A,,Clear,140,2012-10-30 21:53:00
4:53 PM,62.1,33.1,34,30.02,10.0,South,5.8,-,N/A,,Clear,170,2012-10-30 22:53:00
5:53 PM,50.0,35.1,57,30.04,10.0,South,4.6,-,N/A,,Clear,190,2012-10-30 23:53:00
6:53 PM,44.1,35.1,71,30.06,10.0,SSW,3.5,-,N/A,,Clear,200,2012-10-31 00:53:00
7:53 PM,46.0,34.0,63,30.05,10.0,South,4.6,-,N/A,,Clear,170,2012-10-31 01:53:00
8:53 PM,37.9,32.0,79,30.06,10.0,Calm,Calm,-,N/A,,Clear,0,2012-10-31 02:53:00
9:53 PM,39.9,32.0,73,30.04,10.0,SSW,3.5,-,N/A,,Clear,210,2012-10-31 03:53:00
10:53 PM,37.0,30.9,79,30.03,10.0,Calm,Calm,-,N/A,,Clear,0,2012-10-31 04:53:00
11:53 PM,42.1,30.0,62,29.99,10.0,South,8.1,-,N/A,,Clear,190,2012-10-31 05:53:00